Regional Weather Roundup
Issued by NWS Little Rock, AR

Home | Current Version | Previous Version | Text Only | Print | Product List | Glossary On
Versions: 1 2 3 4 5 6 7 8 9 10 11 12 13 14 15 16 17 18 19 20 21 22 23 24 25 26 27 28 29 30 31 32
000
ASUS44 KLZK 290805
RWRLZK

WEATHER ROUNDUP FOR ARKANSAS
NATIONAL WEATHER SERVICE LITTLE ROCK AR
300 AM CDT MON MAY 29 2017

NOTE: "FAIR" INDICATES FEW OR NO CLOUDS BELOW 12,000 FEET WITH NO
SIGNIFICANT WEATHER AND/OR OBSTRUCTIONS TO VISIBILITY.

ARZ001-003-010-029-290900-
NORTHWEST ARKANSAS

CITY           SKY/WX    TMP DP  RH WIND       PRES   REMARKS
FAYETTEVILLE   CLOUDY    54  54 100 S3        30.04S
FORT SMITH     CLOUDY    63  59  87 CALM      30.01S
HARRISON       CLOUDY    61  54  77 SW3       30.02S
BENTONVILLE    CLOUDY    59  55  88 CALM      30.04R
ROGERS         CLEAR     61  56  83 SW6       30.04S
SILOAM SPGS    CLOUDY    59  54  82 S3        30.03S
HIGHFILL       PTCLDY    59  56  89 SW5       30.04R
$$

ARZ004-005-016-290900-
NORTH CENTRAL ARKANSAS

CITY           SKY/WX    TMP DP  RH WIND       PRES   REMARKS
BATESVILLE     CLOUDY    63  61  94 W3        29.98F
FLIPPIN        CLOUDY    59  54  82 CALM      29.98S
MTN HOME       CLOUDY    58  56  93 CALM      29.99F
$$

ARZ040-041-290900-
WEST CENTRAL ARKANSAS

CITY           SKY/WX    TMP DP  RH WIND       PRES   REMARKS
MENA           MOCLDY    61  61 100 CALM      30.03S
MOUNT IDA      MOCLDY    63  63 100 CALM      30.00R
$$

ARZ009-017-025-026-028-290900-
NORTHEAST ARKANSAS

CITY           SKY/WX    TMP DP  RH WIND       PRES   REMARKS
JONESBORO      CLOUDY    65  61  87 CALM      29.96S
NEWPORT        CLOUDY    65  62  90 NW8       29.96F
WALNUT RIDGE   CLOUDY    64  57  77 SW3       29.96F
BLYTHEVILLE    CLOUDY    67  65  93 NW5       29.96S
$$

ARZ022-023-033-042-044-290900-
CENTRAL ARKANSAS

CITY           SKY/WX    TMP DP  RH WIND       PRES   REMARKS
LITTLE ROCK    CLOUDY    69  64  84 NW6       29.98S
N LITTLE ROCK    N/A     68  62  82 N3        29.98S
JACKSONVILLE   CLOUDY    68  64  88 NW5       29.97F
CONWAY           N/A     68  66  94 CALM      29.98R
SEARCY         CLOUDY    64  64 100 CALM      29.99S
HOT SPRINGS    CLOUDY    68  68 100 NW5       30.00S
RUSSELLVILLE   CLOUDY    62  61  96 CALM      30.00S FOG
CLINTON        FAIR      59  57  94 CALM      30.01S
$$

ARZ036-290900-
EAST ARKANSAS

CITY           SKY/WX    TMP DP  RH WIND       PRES   REMARKS
WEST MEMPHIS   CLOUDY    70  70 100 CALM      29.94S
$$

ARZ050-053-066-070-073-290900-
SOUTHWEST ARKANSAS

CITY           SKY/WX    TMP DP  RH WIND       PRES   REMARKS
ARKADELPHIA    FAIR      72  69  90 N3        29.98S
CAMDEN         CLOUDY    70  66  88 SW12G17   29.98S
TEXARKANA      CLOUDY    70  70 100 W3        29.99F
EL DORADO      CLOUDY    67  65  93 SW8       29.99F
DE QUEEN       FOG       65  65 100 CALM      29.99S VSB 1/4
$$

ARZ056-057-069-290900-
SOUTHEAST ARKANSAS

CITY           SKY/WX    TMP DP  RH WIND       PRES   REMARKS
PINE BLUFF     HVY RAIN  73  71  93 W3        29.97R
STUTTGART      CLOUDY    73  59  60 CALM      29.97S
MONTICELLO     CLOUDY    72  69  90 SW10      29.96S

$$






USA.gov is the U.S. government's official web portal to all federal, state and local government web resources and services.